map of UUS home
Great Circle Mapper logo
UUS - Airport
Location
City:  Yuzhno-Sakhalinsk, Sakhalinskaya, Russian Federation (Russia)
ICAO / IATA:UHSS / UUS

Details
Type:Airport (Aerodrome, Airfield)
Use:Public/Civil
Latitude:4653'19"N (46.888672)
Longitude:14243'03"E (142.717531)
Elevation:59 ft (18 m)
Variation:10.31W (WMM2015 magnetic declination)
-0.03 annual change
Runways:1
Longest:11155 × 148 ft (3400 × 45 m), paved

Time
Time Zone:UTC+10 (DST+11)

Weather
METAR:UHSS 260100Z VRB02MPS 9999 SCT040 13/04 Q1009 R01/CLRD70 NOSIG RMK QFE755/1007
TAF:UHSS 252300Z 2600/2706 35003MPS 9999 BKN020CB OVC100 530007
TEMPO 2600/2604 2100 SHRA BR BKN007 BKN020CB
BECMG 2608/2610 27005MPS

Related Locations
Nearby:
Farthest:PSY: 11458 mi / 18439 km
Stanley (Port Stanley) [Port Stanley], FK

Find:

   beyond  
but within

Other Information
Maps:
NOTAMs:
Links:
Sources:

  
flag of Russian Federation (Russia)
flag of Sakhalinskaya
  

Sectional Chart

Flight Planning
at skyvector.com

Satellite Image

Google Maps Satellite View

 

Copyright © 2004-2015 Karl L. Swartz. All rights reserved.
The Great Circle Mapper name and logo are trademarks of the Great Circle Mapper.
All other trademarks mentioned herein belong to their respective owners.
Please see credits for attibutions and further copyright information.

  Follow gcmap on Facebook Follow gcmap on Twitter Follow gcmap on Google+

hCard Microformat

Geo Microformat